Marathon, FL

4:25 AM EDT on March 28, 2017 (GMT -0400)
Florida Keys Marathon

Weather History for KMTH - October, 2011

Change the Weather History Date:

Sunday, October 30, 2011

  Actual Average Record
Temperature  
Mean Temperature 79 °F 78 °F  
Max Temperature 83 °F 83 °F 89 °F (2002)
Min Temperature 75 °F 73 °F 64 °F (2008)
Degree Days  
Heating Degree Days 0 0  
Month to date heating degree days 0 0  
Since 1 July heating degree days 0 0  
Cooling Degree Days 14 13  
Month to date cooling degree days 425 472  
Year to date cooling degree days 4765 4426  
Growing Degree Days 28 (Base 50)    
Moisture  
Dew Point 74 °F    
Average Humidity 84    
Maximum Humidity 94    
Minimum Humidity 74    
Precipitation  
Precipitation T in 0.13 in 0.41 in (2016)
Month to date precipitation 18.33 4.65  
Year to date precipitation 33.50 41.20  
Snow  
Snow 0.00 in - - ()
Month to date snowfall 0.0  
Since 1 July snowfall 0.0  
Since 1 September snowfall 0.0  
Snow Depth 0.00 in    
Sea Level Pressure  
Sea Level Pressure 29.93 in    
Wind  
Wind Speed 11 mph (NE)    
Max Wind Speed 21 mph    
Max Gust Speed 25 mph    
Visibility 10 miles    
Events Rain    
T = Trace of Precipitation, MM = Missing Value Source: NWS Daily Summary

Daily Weather History Graph

Daily Weather History Graph

Search for Another Location

Airport or City:

Trip Planner

Search our weather history database for the weather conditions in past years. The results will help you decide how hot, cold, wet, or windy it might be!

Date:

Astronomy

Oct. 30, 2011 Rise Set
Actual Time 7:29 AM EDT 6:45 PM EDT
Civil Twilight 7:06 AM EDT 7:08 PM EDT
Nautical Twilight 6:39 AM EDT 7:35 PM EDT
Astronomical Twilight 6:12 AM EDT 8:02 PM EDT
Moon 11:30 AM EDT (10/30) 10:29 PM EDT (10/30)
Length of Visible Light 12h 02m
Length of Day
11h 15m
Waxing Crescent, 20% of the Moon is Illuminated
Oct 30
Waxing Crescent
Nov 2
First Quarter
Nov 10
Full
Nov 18
Last Quarter
Nov 25
New

Hourly Weather History & Observations

Time (EDT) Temp. Heat Index Dew Point Humidity Pressure Visibility Wind Dir Wind Speed Gust Speed Precip Events Conditions
12:53 AM 78.1 °F - 75.9 °F 93% 29.90 in 10.0 mi NE 6.9 mph - N/A   Mostly Cloudy
1:46 AM 78.8 °F - 75.2 °F 89% 29.89 in 10.0 mi NE 6.9 mph - N/A   Scattered Clouds
1:53 AM 79.0 °F - 75.9 °F 90% 29.89 in 10.0 mi ENE 8.1 mph - N/A   Scattered Clouds
2:53 AM 78.1 °F - 75.0 °F 90% 29.88 in 10.0 mi ENE 6.9 mph - N/A   Scattered Clouds
3:51 AM 78.8 °F - 75.2 °F 89% 29.87 in 10.0 mi NE 10.4 mph - N/A   Mostly Cloudy
3:53 AM 79.0 °F - 75.0 °F 88% 29.87 in 10.0 mi NE 11.5 mph - N/A   Mostly Cloudy
4:09 AM 78.8 °F - 75.2 °F 89% 29.87 in 10.0 mi NNE 10.4 mph - N/A   Overcast
4:20 AM 78.8 °F - 75.2 °F 89% 29.87 in 10.0 mi NE 11.5 mph - N/A   Overcast
4:31 AM 78.8 °F - 75.2 °F 89% 29.87 in 10.0 mi NE 12.7 mph - N/A   Overcast
4:53 AM 78.1 °F - 75.0 °F 90% 29.88 in 10.0 mi NE 10.4 mph - N/A   Overcast
5:53 AM 75.9 °F - 73.0 °F 91% 29.89 in 8.0 mi NNE 15.0 mph 20.7 mph N/A   Overcast
6:49 AM 75.2 °F - 71.6 °F 89% 29.91 in 8.0 mi NNE 12.7 mph - N/A   Overcast
6:53 AM 75.0 °F - 72.0 °F 90% 29.91 in 8.0 mi NNE 13.8 mph - N/A   Overcast
7:15 AM 75.2 °F - 71.6 °F 89% 29.92 in 9.0 mi NE 16.1 mph - N/A   Overcast
8:20 AM 75.2 °F - 71.6 °F 89% 29.94 in 8.0 mi NE 13.8 mph 23.0 mph N/A   Mostly Cloudy
8:53 AM 75.9 °F - 73.0 °F 91% 29.95 in 9.0 mi NE 13.8 mph - N/A   Mostly Cloudy
9:53 AM 77.0 °F - 73.0 °F 88% 29.97 in 10.0 mi NE 12.7 mph - N/A   Overcast
10:53 AM 78.1 °F - 73.9 °F 87% 29.98 in 10.0 mi NE 15.0 mph - N/A   Overcast
11:25 AM 78.8 °F - 73.4 °F 83% 29.98 in 10.0 mi NE 12.7 mph - N/A   Overcast
11:53 AM 80.1 °F 85.1 °F 75.0 °F 85% 29.98 in 10.0 mi NE 15.0 mph - N/A   Overcast
12:06 PM 80.6 °F 86.2 °F 75.2 °F 84% 29.98 in 10.0 mi NE 16.1 mph - N/A   Overcast
12:36 PM 80.6 °F 85.4 °F 73.4 °F 79% 29.96 in 10.0 mi NE 17.3 mph 24.2 mph N/A   Mostly Cloudy
12:53 PM 82.0 °F 87.9 °F 73.9 °F 76% 29.96 in 10.0 mi ENE 16.1 mph - N/A   Partly Cloudy
1:45 PM 82.4 °F 88.2 °F 73.4 °F 74% 29.95 in 10.0 mi NE 16.1 mph 24.2 mph N/A   Mostly Cloudy
1:53 PM 82.0 °F 87.9 °F 73.9 °F 76% 29.95 in 10.0 mi NE 16.1 mph 23.0 mph N/A   Mostly Cloudy
2:53 PM 82.0 °F 87.9 °F 73.9 °F 76% 29.94 in 10.0 mi NE 17.3 mph - 0.00 in   Overcast
3:53 PM 81.0 °F 86.2 °F 73.9 °F 79% 29.92 in 10.0 mi NE 17.3 mph 25.3 mph N/A   Mostly Cloudy
4:53 PM 80.1 °F 85.4 °F 75.9 °F 87% 29.92 in 10.0 mi NE 15.0 mph - 0.00 in Rain Light Rain
5:53 PM 80.1 °F 85.4 °F 75.9 °F 87% 29.94 in 10.0 mi ENE 13.8 mph - 0.00 in   Scattered Clouds
7:16 PM 78.8 °F - 75.2 °F 89% 29.94 in 10.0 mi ENE 5.8 mph - N/A   Scattered Clouds
7:53 PM 79.0 °F - 73.9 °F 84% 29.94 in 10.0 mi ENE 5.8 mph - N/A   Mostly Cloudy
8:53 PM 79.0 °F - 75.0 °F 88% 29.96 in 10.0 mi ENE 4.6 mph - N/A   Clear
10:53 PM 79.0 °F - 75.9 °F 90% 29.99 in 10.0 mi ENE 6.9 mph - N/A   Partly Cloudy
11:53 PM 79.0 °F - 75.9 °F 90% 29.97 in 10.0 mi ENE 5.8 mph - N/A   Scattered Clouds